Location: Tr�vern
(48.0333°N, 4.6000°W)
Time: 19:15:56
(UTC+00:00)

Sich 1 - Pass Details

Date: 14 July 2020
Orbit: 595 x 624 km, 82.5° (Epoch: 12 August)

Event Time Altitude Azimuth Distance (km) Brightness Sun altitude
Exits shadow 01:10:30 25° 252° (WSW) 1,238 4.3 -19.6°
Maximum altitude 01:11:58 31° 288° (WNW) 1,077 4.3 -19.5°
Drops below altitude 10° 01:15:53 10° 351° (N) 1,984 6.7 -19.4°
Sets 01:18:20 0° 2° (N) 2,900 8.0 -19.3°
